| time (UTC) | temp F | wind direction | speed MPH | gust MPH | rain 1hr in | rain 24hr in | rain mn in | humidity % | barometer mb |
| 20260507184007 | 50 | 273 | 3.0 | 15.0 | 0.00 | 0.00 | 0.00 | 30 | 980.0 |
| 20260507183507 | 49 | 355 | 5.0 | 16.0 | 0.00 | 0.00 | 0.00 | 27 | 980.0 |
| 20260507183008 | 49 | 295 | 10.0 | 16.0 | 0.00 | 0.00 | 0.00 | 26 | 980.0 |
| 20260507182507 | 49 | 296 | 7.0 | 13.0 | 0.00 | 0.00 | 0.00 | 29 | 980.1 |
| 20260507182006 | 49 | 297 | 8.0 | 13.0 | 0.00 | 0.00 | 0.00 | 26 | 980.4 |
| 20260507181506 | 49 | 294 | 4.0 | 12.0 | 0.00 | 0.00 | 0.00 | 27 | 980.2 |
| 20260507181005 | 49 | 286 | 8.0 | 14.0 | 0.00 | 0.00 | 0.00 | 29 | 980.3 |
| 20260507180504 | 49 | 290 | 9.0 | 14.0 | 0.00 | 0.00 | 0.00 | 28 | 980.3 |
| 20260507180007 | 49 | 340 | 5.0 | 12.0 | 0.00 | 0.00 | 0.00 | 29 | 980.3 |
| 20260507175505 | 49 | 23 | 5.0 | 12.0 | 0.00 | 0.00 | 0.00 | 29 | 980.4 |
| 20260507175001 | 48 | 15 | 4.0 | 11.0 | 0.00 | 0.00 | 0.00 | 29 | 980.5 |
| 20260507174601 | 49 | 308 | 6.0 | 11.0 | 0.00 | 0.00 | 0.00 | 29 | 980.6 |
| 20260507174059 | 48 | 250 | 6.0 | 10.0 | 0.00 | 0.00 | 0.00 | 30 | 980.7 |
| 20260507173558 | 48 | 261 | 6.0 | 9.0 | 0.00 | 0.00 | 0.00 | 31 | 980.7 |
| 20260507173100 | 47 | 333 | 1.0 | 7.0 | 0.00 | 0.00 | 0.00 | 32 | 980.7 |
| 20260507172556 | 47 | 64 | 0.0 | 7.0 | 0.00 | 0.00 | 0.00 | 30 | 980.7 |
| 20260507172054 | 47 | 65 | 1.0 | 5.0 | 0.00 | 0.00 | 0.00 | 30 | 980.7 |
| 20260507171556 | 46 | 128 | 1.0 | 12.0 | 0.00 | 0.00 | 0.00 | 32 | 981.0 |
| 20260507171052 | 46 | 297 | 6.0 | 12.0 | 0.00 | 0.00 | 0.00 | 31 | 981.1 |
| 20260507170551 | 46 | 211 | 3.0 | 7.0 | 0.00 | 0.00 | 0.00 | 33 | 981.0 |
| 20260507170050 | 46 | 262 | 1.0 | 9.0 | 0.00 | 0.00 | 0.00 | 32 | 981.1 |
| 20260507165548 | 46 | 290 | 5.0 | 11.0 | 0.00 | 0.00 | 0.00 | 33 | 981.2 |
| 20260507165050 | 45 | 296 | 3.0 | 13.0 | 0.00 | 0.00 | 0.00 | 31 | 981.3 |
| 20260507164547 | 45 | 270 | 7.0 | 13.0 | 0.00 | 0.00 | 0.00 | 32 | 981.2 |
| 20260507164044 | 45 | 311 | 4.0 | 8.0 | 0.00 | 0.00 | 0.00 | 35 | 981.2 |
| 20260507163545 | 45 | 234 | 3.0 | 10.0 | 0.00 | 0.00 | 0.00 | 33 | 981.4 |
| 20260507163041 | 44 | 350 | 4.0 | 10.0 | 0.00 | 0.00 | 0.00 | 34 | 981.3 |
| 20260507162540 | 44 | 38 | 3.0 | 6.0 | 0.00 | 0.00 | 0.00 | 33 | 981.3 |
| 20260507162038 | 44 | 17 | 2.0 | 5.0 | 0.00 | 0.00 | 0.00 | 35 | 981.4 |
| 20260507161539 | 44 | 27 | 2.0 | 8.0 | 0.00 | 0.00 | 0.00 | 34 | 981.4 |
| 20260507161035 | 44 | 15 | 1.0 | 8.0 | 0.00 | 0.00 | 0.00 | 34 | 981.6 |
| 20260507160535 | 44 | 247 | 4.0 | 5.0 | 0.00 | 0.00 | 0.00 | 35 | 981.4 |
| 20260507160037 | 44 | 153 | 1.0 | 5.0 | 0.00 | 0.00 | 0.00 | 36 | 981.5 |
| 20260507155532 | 43 | 178 | 3.0 | 5.0 | 0.00 | 0.00 | 0.00 | 36 | 981.7 |
| 20260507155031 | 43 | 195 | 1.0 | 5.0 | 0.00 | 0.00 | 0.00 | 39 | 981.5 |
| 20260507154530 | 43 | 236 | 2.0 | 5.0 | 0.00 | 0.00 | 0.00 | 37 | 981.5 |
| 20260507154028 | 43 | 227 | 2.0 | 4.0 | 0.00 | 0.00 | 0.00 | 37 | 981.5 |
| 20260507153526 | 43 | 325 | 1.0 | 6.0 | 0.00 | 0.00 | 0.00 | 36 | 981.6 |
| 20260507153032 | 43 | 90 | 1.0 | 6.0 | 0.00 | 0.00 | 0.00 | 37 | 981.5 |
| 20260507152524 | 42 | 64 | 1.0 | 5.0 | 0.00 | 0.00 | 0.00 | 37 | 981.6 |
| 20260507152023 | 42 | 296 | 1.0 | 6.0 | 0.00 | 0.00 | 0.00 | 38 | 981.6 |
| 20260507151521 | 42 | 296 | 0.0 | 3.0 | 0.00 | 0.00 | 0.00 | 41 | 981.7 |
| 20260507151021 | 41 | 296 | 1.0 | 5.0 | 0.00 | 0.00 | 0.00 | 39 | 981.7 |
| 20260507150520 | 41 | 288 | 2.0 | 5.0 | 0.00 | 0.00 | 0.00 | 39 | 981.7 |
| 20260507150020 | 41 | 49 | 1.0 | 4.0 | 0.00 | 0.00 | 0.00 | 40 | 981.8 |
| 20260507145518 | 41 | 90 | 0.0 | 4.0 | 0.00 | 0.00 | 0.00 | 42 | 981.7 |
| 20260507145016 | 40 | 344 | 1.0 | 5.0 | 0.00 | 0.00 | 0.00 | 43 | 981.9 |
| 20260507144515 | 40 | 19 | 2.0 | 5.0 | 0.00 | 0.00 | 0.00 | 42 | 982.1 |
| 20260507144015 | 40 | 336 | 1.0 | 3.0 | 0.00 | 0.00 | 0.00 | 43 | 982.1 |
| 20260507143513 | 40 | 40 | 2.0 | 3.0 | 0.00 | 0.00 | 0.00 | 43 | 982.1 |
| 20260507143012 | 39 | 99 | 0.0 | 4.0 | 0.00 | 0.00 | 0.00 | 44 | 982.0 |
| 20260507142512 | 39 | 318 | 1.0 | 4.0 | 0.00 | 0.00 | 0.00 | 43 | 982.0 |
| 20260507142010 | 38 | 33 | 0.0 | 3.0 | 0.00 | 0.00 | 0.00 | 45 | 982.1 |
| 20260507141509 | 38 | 33 | 0.0 | 3.0 | 0.00 | 0.00 | 0.00 | 46 | 982.0 |
| 20260507141008 | 37 | 36 | 0.0 | 4.0 | 0.00 | 0.00 | 0.00 | 47 | 982.1 |
| 20260507140506 | 37 | 34 | 2.0 | 4.0 | 0.00 | 0.00 | 0.00 | 46 | 982.1 |
| 20260507140006 | 36 | 295 | 2.0 | 4.0 | 0.00 | 0.00 | 0.00 | 46 | 982.1 |
| 20260507135505 | 36 | 305 | 1.0 | 3.0 | 0.00 | 0.00 | 0.00 | 48 | 982.2 |
| 20260507135004 | 36 | 301 | 1.0 | 3.0 | 0.00 | 0.00 | 0.00 | 47 | 982.2 |
| 20260507134504 | 36 | 275 | 2.0 | 3.0 | 0.00 | 0.00 | 0.00 | 47 | 982.2 |
| 20260507134003 | 36 | 276 | 0.0 | 3.0 | 0.00 | 0.00 | 0.00 | 48 | 982.1 |
| 20260507133505 | 36 | 276 | 1.0 | 3.0 | 0.00 | 0.00 | 0.00 | 47 | 982.1 |
| 20260507133003 | 36 | 11 | 0.0 | 1.0 | 0.00 | 0.00 | 0.00 | 43 | 982.2 |
| 20260507132503 | 35 | 11 | 0.0 | 1.0 | 0.00 | 0.00 | 0.00 | 44 | 982.2 |
| 20260507132101 | 35 | 11 | 0.0 | 1.0 | 0.00 | 0.00 | 0.00 | 44 | 982.3 |
| 20260507131603 | 34 | 11 | 0.0 | 2.0 | 0.00 | 0.00 | 0.00 | 45 | 982.3 |
| 20260507131058 | 34 | 11 | 0.0 | 3.0 | 0.00 | 0.00 | 0.00 | 46 | 982.4 |
| 20260507130557 | 33 | 11 | 0.0 | 3.0 | 0.00 | 0.00 | 0.00 | 47 | 982.4 |
| 20260507130055 | 32 | 11 | 0.0 | 3.0 | 0.00 | 0.00 | 0.00 | 47 | 982.4 |
| 20260507125554 | 32 | 11 | 0.0 | 3.0 | 0.00 | 0.00 | 0.00 | 48 | 982.5 |
| 20260507125053 | 31 | 11 | 0.0 | 3.0 | 0.00 | 0.00 | 0.00 | 49 | 982.5 |
| 20260507124551 | 30 | 11 | 1.0 | 3.0 | 0.00 | 0.00 | 0.00 | 49 | 982.5 |
| 20260507124049 | 30 | 11 | 1.0 | 3.0 | 0.00 | 0.00 | 0.00 | 50 | 982.4 |
| 20260507123549 | 29 | 11 | 1.0 | 3.0 | 0.00 | 0.00 | 0.00 | 50 | 982.4 |
| 20260507123048 | 29 | 11 | 2.0 | 3.0 | 0.00 | 0.00 | 0.00 | 51 | 982.4 |
| 20260507122546 | 28 | 196 | 0.0 | 2.0 | 0.00 | 0.00 | 0.00 | 52 | 982.4 |
| 20260507122044 | 28 | 196 | 1.0 | 2.0 | 0.00 | 0.00 | 0.00 | 52 | 982.4 |
| 20260507121543 | 27 | 196 | 1.0 | 2.0 | 0.00 | 0.00 | 0.00 | 53 | 982.3 |
| 20260507121042 | 27 | 196 | 0.0 | 0.0 | 0.00 | 0.00 | 0.00 | 54 | 982.3 |
| 20260507120541 | 26 | 196 | 0.0 | 0.0 | 0.00 | 0.00 | 0.00 | 55 | 982.2 |
| 20260507120042 | 25 | 196 | 0.0 | 0.0 | 0.00 | 0.00 | 0.00 | 55 | 982.2 |
| 20260507115542 | 25 | 196 | 0.0 | 0.0 | 0.00 | 0.00 | 0.00 | 56 | 982.2 |
| 20260507115041 | 25 | 196 | 0.0 | 0.0 | 0.00 | 0.00 | 0.00 | 56 | 982.0 |
| 20260507114542 | 25 | 196 | 0.0 | 0.0 | 0.00 | 0.00 | 0.00 | 57 | 982.0 |
| 20260507114041 | 24 | 194 | 0.0 | 0.0 | 0.00 | 0.00 | 0.00 | 58 | 982.1 |
| 20260507113542 | 24 | 194 | 0.0 | 0.0 | 0.00 | 0.00 | 0.00 | 59 | 982.1 |
| 20260507113042 | 23 | 194 | 0.0 | 0.0 | 0.00 | 0.00 | 0.00 | 58 | 982.1 |
| 20260507112541 | 23 | 194 | 0.0 | 0.0 | 0.00 | 0.00 | 0.00 | 59 | 982.1 |
| 20260507112041 | 23 | 194 | 0.0 | 0.0 | 0.00 | 0.00 | 0.00 | 58 | 982.1 |
| 20260507111544 | 23 | 194 | 0.0 | 0.0 | 0.00 | 0.00 | 0.00 | 57 | 982.1 |
| 20260507111039 | 23 | 194 | 0.0 | 0.0 | 0.00 | 0.00 | 0.00 | 57 | 982.2 |
| 20260507110540 | 23 | 194 | 0.0 | 0.0 | 0.00 | 0.00 | 0.00 | 57 | 982.1 |
| 20260507110042 | 23 | 194 | 0.0 | 0.0 | 0.00 | 0.00 | 0.00 | 58 | 982.1 |
| 20260507105538 | 23 | 194 | 0.0 | 0.0 | 0.00 | 0.00 | 0.00 | 57 | 982.1 |
| 20260507105038 | 23 | 194 | 0.0 | 0.0 | 0.00 | 0.00 | 0.00 | 58 | 982.1 |
| 20260507104537 | 23 | 194 | 0.0 | 0.0 | 0.00 | 0.00 | 0.00 | 58 | 982.1 |
| 20260507104036 | 24 | 194 | 0.0 | 0.0 | 0.00 | 0.00 | 0.00 | 57 | 982.2 |
| 20260507103537 | 24 | 194 | 0.0 | 0.0 | 0.00 | 0.00 | 0.00 | 58 | 982.2 |
| 20260507103036 | 24 | 194 | 0.0 | 0.0 | 0.00 | 0.00 | 0.00 | 57 | 982.2 |
| 20260507102536 | 24 | 194 | 0.0 | 0.0 | 0.00 | 0.00 | 0.00 | 57 | 982.2 |
| 20260507102036 | 24 | 194 | 0.0 | 0.0 | 0.00 | 0.00 | 0.00 | 57 | 982.2 |
| 20260507101555 | 24 | 194 | 0.0 | 0.0 | 0.00 | 0.00 | 0.00 | 57 | 982.2 |
| 20260507101035 | 24 | 194 | 0.0 | 0.0 | 0.00 | 0.00 | 0.00 | 57 | 982.2 |
| 20260507100535 | 25 | 194 | 0.0 | 0.0 | 0.00 | 0.00 | 0.00 | 57 | 982.2 |
| 20260507100038 | 24 | 194 | 0.0 | 0.0 | 0.00 | 0.00 | 0.00 | 57 | 982.2 |
| 20260507095535 | 24 | 194 | 0.0 | 0.0 | 0.00 | 0.00 | 0.00 | 58 | 982.1 |
| 20260507095034 | 24 | 194 | 0.0 | 0.0 | 0.00 | 0.00 | 0.00 | 58 | 982.2 |
| 20260507094535 | 24 | 194 | 0.0 | 0.0 | 0.00 | 0.00 | 0.00 | 59 | 982.2 |
| 20260507094036 | 24 | 194 | 0.0 | 0.0 | 0.00 | 0.00 | 0.00 | 58 | 982.3 |
| 20260507093535 | 24 | 194 | 0.0 | 0.0 | 0.00 | 0.00 | 0.00 | 59 | 982.2 |
| 20260507093034 | 24 | 194 | 0.0 | 0.0 | 0.00 | 0.00 | 0.00 | 58 | 982.4 |
| 20260507092534 | 24 | 194 | 0.0 | 0.0 | 0.00 | 0.00 | 0.00 | 58 | 982.3 |
| 20260507092031 | 24 | 194 | 0.0 | 0.0 | 0.00 | 0.00 | 0.00 | 57 | 982.4 |
| 20260507091550 | 24 | 194 | 0.0 | 0.0 | 0.00 | 0.00 | 0.00 | 57 | 982.3 |
| 20260507091031 | 25 | 194 | 0.0 | 0.0 | 0.00 | 0.00 | 0.00 | 57 | 982.3 |
| 20260507090533 | 25 | 194 | 0.0 | 0.0 | 0.00 | 0.00 | 0.00 | 56 | 982.3 |
| 20260507090031 | 25 | 194 | 0.0 | 3.0 | 0.00 | 0.00 | 0.00 | 56 | 982.3 |
| 20260507085532 | 26 | 194 | 1.0 | 3.0 | 0.00 | 0.00 | 0.00 | 55 | 982.3 |
| 20260507085031 | 26 | 198 | 1.0 | 3.0 | 0.00 | 0.00 | 0.00 | 54 | 982.3 |
| 20260507084529 | 26 | 197 | 2.0 | 4.0 | 0.00 | 0.00 | 0.00 | 54 | 982.4 |
| 20260507084030 | 26 | 198 | 1.0 | 4.0 | 0.00 | 0.00 | 0.00 | 54 | 982.4 |
| 20260507083530 | 26 | 195 | 1.0 | 3.0 | 0.00 | 0.00 | 0.00 | 54 | 982.3 |
| 20260507083030 | 27 | 197 | 1.0 | 5.0 | 0.00 | 0.00 | 0.00 | 54 | 982.4 |
| 20260507082530 | 27 | 204 | 0.0 | 6.0 | 0.00 | 0.00 | 0.00 | 54 | 982.3 |
| 20260507082028 | 26 | 166 | 1.0 | 6.0 | 0.00 | 0.00 | 0.00 | 54 | 982.3 |
| 20260507081540 | 26 | 183 | 0.0 | 5.0 | 0.00 | 0.00 | 0.00 | 54 | 982.3 |
| 20260507081028 | 26 | 167 | 0.0 | 5.0 | 0.00 | 0.00 | 0.00 | 54 | 982.3 |
| 20260507080527 | 26 | 113 | 1.0 | 3.0 | 0.00 | 0.00 | 0.00 | 54 | 982.4 |
| 20260507080027 | 26 | 200 | 0.0 | 3.0 | 0.00 | 0.00 | 0.00 | 54 | 982.5 |
| 20260507075527 | 26 | 215 | 0.0 | 3.0 | 0.00 | 0.00 | 0.00 | 54 | 982.4 |
| 20260507075026 | 26 | 188 | 0.0 | 2.0 | 0.00 | 0.00 | 0.00 | 54 | 982.4 |
| 20260507074530 | 26 | 165 | 0.0 | 3.0 | 0.00 | 0.00 | 0.00 | 54 | 982.5 |
| 20260507074025 | 26 | 180 | 0.0 | 2.0 | 0.00 | 0.00 | 0.00 | 54 | 982.4 |
| 20260507073525 | 26 | 209 | 0.0 | 3.0 | 0.00 | 0.00 | 0.00 | 54 | 982.4 |
| 20260507073025 | 26 | 167 | 1.0 | 3.0 | 0.00 | 0.00 | 0.00 | 55 | 982.5 |
| 20260507072525 | 26 | 169 | 0.0 | 2.0 | 0.00 | 0.00 | 0.00 | 55 | 982.4 |
| 20260507072024 | 26 | 144 | 0.0 | 3.0 | 0.00 | 0.00 | 0.00 | 55 | 982.5 |
| 20260507071523 | 26 | 145 | 0.0 | 1.0 | 0.00 | 0.00 | 0.00 | 55 | 982.5 |
| 20260507071023 | 26 | 194 | 0.0 | 3.0 | 0.00 | 0.00 | 0.00 | 56 | 982.6 |
| 20260507070522 | 25 | 194 | 1.0 | 3.0 | 0.00 | 0.00 | 0.00 | 56 | 982.6 |
| 20260507070023 | 25 | 189 | 1.0 | 3.0 | 0.00 | 0.00 | 0.00 | 57 | 982.7 |
| 20260507065521 | 25 | 196 | 1.0 | 3.0 | 0.00 | 0.00 | 0.00 | 58 | 982.6 |
| 20260507065021 | 25 | 183 | 0.0 | 3.0 | 0.00 | 0.00 | 0.00 | 58 | 982.8 |
| 20260507064523 | 24 | 132 | 0.0 | 0.0 | 0.00 | 0.00 | 0.00 | 58 | 982.7 |
| 20260507064020 | 24 | 132 | 0.0 | 0.0 | 0.00 | 0.00 | 0.00 | 58 | 982.8 |
| 20260507063521 | 24 | 132 | 0.0 | 3.0 | 0.00 | 0.00 | 0.00 | 58 | 982.9 |
| 20260507063019 | 24 | 132 | 0.0 | 3.0 | 0.00 | 0.00 | 0.00 | 58 | 982.8 |
| 20260507062520 | 24 | 132 | 0.0 | 1.0 | 0.00 | 0.00 | 0.00 | 58 | 982.9 |
| 20260507062019 | 24 | 132 | 0.0 | 1.0 | 0.00 | 0.00 | 0.00 | 58 | 982.9 |
| 20260507061529 | 25 | 132 | 0.0 | 1.0 | 0.00 | 0.00 | 0.00 | 58 | 982.9 |
| 20260507061017 | 25 | 132 | 0.0 | 2.0 | 0.00 | 0.00 | 0.00 | 58 | 982.9 |
| 20260507060517 | 25 | 132 | 0.0 | 2.0 | 0.00 | 0.00 | 0.00 | 57 | 982.9 |
| 20260507060027 | 25 | 132 | 0.0 | 2.0 | 0.00 | 0.00 | 0.00 | 56 | 982.9 |
| 20260507055517 | 26 | 132 | 0.0 | 2.0 | 0.00 | 0.00 | 0.00 | 56 | 982.9 |
| 20260507055019 | 26 | 132 | 0.0 | 3.0 | 0.00 | 0.00 | 0.00 | 56 | 982.9 |
| 20260507054517 | 26 | 132 | 1.0 | 3.0 | 0.00 | 0.00 | 0.00 | 57 | 982.9 |
| 20260507054017 | 26 | 164 | 0.0 | 3.0 | 0.00 | 0.00 | 0.00 | 57 | 983.0 |
| 20260507053517 | 25 | 150 | 1.0 | 5.0 | 0.00 | 0.00 | 0.00 | 57 | 983.0 |
| 20260507053017 | 25 | 166 | 1.0 | 5.0 | 0.00 | 0.00 | 0.00 | 58 | 983.0 |
| 20260507052516 | 25 | 101 | 1.0 | 3.0 | 0.00 | 0.00 | 0.00 | 57 | 983.0 |
| 20260507052015 | 25 | 101 | 1.0 | 3.0 | 0.00 | 0.00 | 0.00 | 56 | 983.0 |
| 20260507051515 | 25 | 101 | 2.0 | 3.0 | 0.00 | 0.00 | 0.00 | 56 | 983.0 |
| 20260507051013 | 25 | 101 | 1.0 | 3.0 | 0.00 | 0.00 | 0.00 | 57 | 983.0 |
| 20260507050512 | 26 | 101 | 1.0 | 3.0 | 0.00 | 0.00 | 0.00 | 57 | 983.1 |
| 20260507050024 | 26 | 101 | 1.0 | 3.0 | 0.00 | 0.00 | 0.00 | 56 | 983.0 |
| 20260507045510 | 26 | 101 | 2.0 | 4.0 | 0.00 | 0.00 | 0.00 | 55 | 983.1 |
| 20260507045009 | 27 | 101 | 2.0 | 4.0 | 0.00 | 0.00 | 0.00 | 56 | 983.2 |
| 20260507044523 | 27 | 96 | 2.0 | 4.0 | 0.00 | 0.00 | 0.00 | 56 | 983.2 |
| 20260507044014 | 27 | 91 | 3.0 | 6.0 | 0.00 | 0.00 | 0.00 | 56 | 983.1 |
| 20260507043507 | 27 | 92 | 3.0 | 6.0 | 0.00 | 0.00 | 0.00 | 56 | 983.2 |
| 20260507043007 | 27 | 93 | 3.0 | 4.0 | 0.00 | 0.00 | 0.00 | 56 | 983.2 |
| 20260507042507 | 27 | 94 | 3.0 | 6.0 | 0.00 | 0.00 | 0.00 | 56 | 983.3 |
| 20260507042006 | 28 | 86 | 3.0 | 6.0 | 0.00 | 0.00 | 0.00 | 55 | 983.2 |
| 20260507041505 | 28 | 86 | 3.0 | 6.0 | 0.00 | 0.00 | 0.00 | 56 | 983.2 |
| 20260507041004 | 28 | 86 | 3.0 | 6.0 | 0.00 | 0.00 | 0.00 | 55 | 983.3 |
| 20260507040503 | 28 | 96 | 3.0 | 6.0 | 0.00 | 0.00 | 0.00 | 55 | 983.3 |
| 20260507040002 | 28 | 96 | 3.0 | 6.0 | 0.00 | 0.00 | 0.00 | 55 | 983.3 |
| 20260507035501 | 29 | 92 | 3.0 | 4.0 | 0.00 | 0.00 | 0.00 | 54 | 983.3 |
| 20260507035101 | 29 | 96 | 2.0 | 6.0 | 0.00 | 0.00 | 0.00 | 53 | 983.4 |
| 20260507034605 | 29 | 96 | 2.0 | 7.0 | 0.00 | 0.00 | 0.00 | 54 | 983.4 |
| 20260507034059 | 30 | 90 | 4.0 | 7.0 | 0.00 | 0.00 | 0.00 | 54 | 983.4 |
| 20260507033559 | 30 | 89 | 4.0 | 6.0 | 0.00 | 0.00 | 0.00 | 54 | 983.4 |
| 20260507033059 | 30 | 82 | 4.0 | 7.0 | 0.00 | 0.00 | 0.00 | 54 | 983.4 |
| 20260507032557 | 30 | 78 | 3.0 | 7.0 | 0.00 | 0.00 | 0.00 | 53 | 983.4 |
| 20260507032057 | 30 | 88 | 3.0 | 6.0 | 0.00 | 0.00 | 0.00 | 53 | 983.4 |
| 20260507031556 | 31 | 78 | 3.0 | 5.0 | 0.00 | 0.00 | 0.00 | 53 | 983.5 |
| 20260507031100 | 31 | 76 | 3.0 | 7.0 | 0.00 | 0.00 | 0.00 | 52 | 983.5 |
| 20260507030557 | 32 | 86 | 3.0 | 7.0 | 0.00 | 0.00 | 0.00 | 52 | 983.6 |
| 20260507030106 | 32 | 86 | 4.0 | 8.0 | 0.00 | 0.00 | 0.00 | 51 | 983.6 |
| 20260507025556 | 32 | 88 | 4.0 | 9.0 | 0.00 | 0.00 | 0.00 | 51 | 983.5 |
| 20260507025056 | 33 | 74 | 5.0 | 9.0 | 0.00 | 0.00 | 0.00 | 50 | 983.5 |
| 20260507024607 | 33 | 79 | 4.0 | 8.0 | 0.00 | 0.00 | 0.00 | 50 | 983.5 |
| 20260507024100 | 34 | 78 | 5.0 | 8.0 | 0.00 | 0.00 | 0.00 | 49 | 983.6 |
| 20260507023559 | 35 | 82 | 4.0 | 9.0 | 0.00 | 0.00 | 0.00 | 47 | 983.6 |
| 20260507023056 | 36 | 74 | 5.0 | 11.0 | 0.00 | 0.00 | 0.00 | 45 | 983.6 |
| 20260507022556 | 36 | 69 | 6.0 | 11.0 | 0.00 | 0.00 | 0.00 | 42 | 983.6 |
| 20260507022056 | 37 | 19 | 0.0 | 2.0 | 0.00 | 0.00 | 0.00 | 37 | 983.5 |
| 20260507021615 | 37 | 19 | 0.0 | 1.0 | 0.00 | 0.00 | 0.00 | 37 | 983.4 |
| 20260507021055 | 38 | 19 | 0.0 | 2.0 | 0.00 | 0.00 | 0.00 | 36 | 983.3 |
| 20260507020555 | 38 | 19 | 0.0 | 2.0 | 0.00 | 0.00 | 0.00 | 36 | 983.3 |
| 20260507020104 | 38 | 19 | 0.0 | 3.0 | 0.00 | 0.00 | 0.00 | 36 | 983.3 |
| 20260507015555 | 39 | 20 | 1.0 | 3.0 | 0.00 | 0.00 | 0.00 | 35 | 983.4 |
| 20260507015058 | 39 | 5 | 0.0 | 5.0 | 0.00 | 0.00 | 0.00 | 34 | 983.2 |
| 20260507014612 | 40 | 11 | 2.0 | 6.0 | 0.00 | 0.00 | 0.00 | 34 | 983.0 |
| 20260507014054 | 40 | 24 | 2.0 | 6.0 | 0.00 | 0.00 | 0.00 | 33 | 983.1 |
| 20260507013553 | 40 | 350 | 2.0 | 5.0 | 0.00 | 0.00 | 0.00 | 33 | 983.1 |
| 20260507013056 | 40 | 37 | 1.0 | 8.0 | 0.00 | 0.00 | 0.00 | 32 | 983.2 |
| 20260507012558 | 41 | 19 | 2.0 | 8.0 | 0.00 | 0.00 | 0.00 | 32 | 983.2 |
| 20260507012054 | 41 | 44 | 2.0 | 8.0 | 0.00 | 0.00 | 0.00 | 32 | 983.3 |
| 20260507011553 | 41 | 29 | 2.0 | 9.0 | 0.00 | 0.00 | 0.00 | 32 | 983.3 |
| 20260507011055 | 41 | 40 | 2.0 | 9.0 | 0.00 | 0.00 | 0.00 | 32 | 983.2 |
| 20260507010557 | 42 | 26 | 2.0 | 11.0 | 0.00 | 0.00 | 0.00 | 32 | 983.1 |
| 20260507010107 | 42 | 360 | 4.0 | 11.0 | 0.00 | 0.00 | 0.00 | 32 | 983.1 |
| 20260507005553 | 42 | 28 | 3.0 | 9.0 | 0.00 | 0.00 | 0.00 | 32 | 983.2 |
| 20260507005052 | 42 | 22 | 3.0 | 9.0 | 0.00 | 0.00 | 0.00 | 33 | 983.1 |
| 20260507004552 | 42 | 10 | 4.0 | 11.0 | 0.00 | 0.00 | 0.00 | 32 | 983.1 |
| 20260507004051 | 42 | 355 | 5.0 | 11.0 | 0.00 | 0.00 | 0.00 | 33 | 983.1 |
| 20260507003551 | 42 | 355 | 3.0 | 10.0 | 0.00 | 0.00 | 0.00 | 34 | 983.2 |
| 20260507003051 | 42 | 342 | 4.0 | 10.0 | 0.00 | 0.00 | 0.00 | 34 | 983.1 |
| 20260507002550 | 42 | 21 | 5.0 | 10.0 | 0.00 | 0.00 | 0.00 | 34 | 983.2 |
| 20260507002050 | 42 | 355 | 3.0 | 10.0 | 0.00 | 0.00 | 0.00 | 35 | 983.3 |
| 20260507001552 | 43 | 38 | 4.0 | 10.0 | 0.00 | 0.00 | 0.00 | 34 | 983.3 |
| 20260507001048 | 43 | 5 | 5.0 | 11.0 | 0.00 | 0.00 | 0.00 | 34 | 983.4 |
| 20260507000547 | 43 | 5 | 4.0 | 11.0 | 0.00 | 0.00 | 0.00 | 35 | 983.4 |
| 20260507000048 | 43 | 26 | 4.0 | 11.0 | 0.00 | 0.00 | 0.00 | 34 | 983.5 |
| 20260506235549 | 43 | 355 | 3.0 | 11.0 | 0.00 | 0.00 | 0.00 | 34 | 983.5 |
| 20260506235047 | 43 | 350 | 4.0 | 12.0 | 0.00 | 0.00 | 0.00 | 35 | 983.5 |
| 20260506234548 | 43 | 20 | 4.0 | 12.0 | 0.00 | 0.00 | 0.00 | 35 | 983.5 |
| 20260506234047 | 43 | 5 | 5.0 | 12.0 | 0.00 | 0.00 | 0.00 | 35 | 983.4 |
| 20260506233548 | 43 | 23 | 4.0 | 12.0 | 0.00 | 0.00 | 0.00 | 35 | 983.5 |
| 20260506233052 | 43 | 32 | 6.0 | 12.0 | 0.00 | 0.00 | 0.00 | 35 | 983.5 |
| 20260506232547 | 43 | 325 | 4.0 | 14.0 | 0.00 | 0.00 | 0.00 | 36 | 983.6 |
| 20260506232046 | 43 | 355 | 7.0 | 14.0 | 0.00 | 0.00 | 0.00 | 35 | 983.6 |
| 20260506231546 | 43 | 355 | 6.0 | 11.0 | 0.00 | 0.00 | 0.00 | 36 | 983.7 |
| 20260506231048 | 43 | 336 | 7.0 | 13.0 | 0.00 | 0.00 | 0.00 | 36 | 983.6 |
| 20260506230548 | 43 | 350 | 7.0 | 13.0 | 0.00 | 0.00 | 0.00 | 37 | 983.7 |
| 20260506230046 | 43 | 28 | 7.0 | 13.0 | 0.00 | 0.00 | 0.00 | 35 | 983.8 |
| 20260506225545 | 44 | 323 | 7.0 | 13.0 | 0.00 | 0.00 | 0.00 | 36 | 983.6 |
| 20260506225045 | 44 | 42 | 5.0 | 14.0 | 0.00 | 0.00 | 0.00 | 35 | 983.6 |
| 20260506224545 | 44 | 331 | 6.0 | 14.0 | 0.00 | 0.00 | 0.00 | 36 | 983.5 |
| 20260506224045 | 44 | 346 | 5.0 | 17.0 | 0.00 | 0.00 | 0.00 | 35 | 983.5 |
| 20260506223544 | 44 | 306 | 9.0 | 17.0 | 0.00 | 0.00 | 0.00 | 36 | 983.5 |
| 20260506223046 | 44 | 315 | 7.0 | 12.0 | 0.00 | 0.00 | 0.00 | 36 | 983.6 |
| 20260506222544 | 44 | 338 | 6.0 | 12.0 | 0.00 | 0.00 | 0.00 | 36 | 983.6 |
| 20260506222044 | 44 | 19 | 5.0 | 14.0 | 0.00 | 0.00 | 0.00 | 37 | 983.7 |
| 20260506221545 | 44 | 315 | 8.0 | 14.0 | 0.00 | 0.00 | 0.00 | 37 | 983.6 |
| 20260506221043 | 44 | 346 | 6.0 | 12.0 | 0.00 | 0.00 | 0.00 | 37 | 983.8 |
| 20260506220542 | 43 | 26 | 4.0 | 13.0 | 0.00 | 0.00 | 0.00 | 36 | 983.8 |
| 20260506220044 | 43 | 19 | 6.0 | 13.0 | 0.00 | 0.00 | 0.00 | 36 | 983.8 |
| 20260506215545 | 43 | 314 | 6.0 | 14.0 | 0.00 | 0.00 | 0.00 | 36 | 983.8 |
| 20260506215042 | 44 | 350 | 8.0 | 14.0 | 0.00 | 0.00 | 0.00 | 36 | 983.9 |
| 20260506214544 | 43 | 333 | 7.0 | 13.0 | 0.00 | 0.00 | 0.00 | 38 | 983.9 |
| 20260506214041 | 43 | 45 | 5.0 | 15.0 | 0.00 | 0.00 | 0.00 | 37 | 984.0 |
| 20260506213541 | 44 | 317 | 7.0 | 15.0 | 0.00 | 0.00 | 0.00 | 37 | 984.1 |
| 20260506213040 | 43 | 355 | 6.0 | 16.0 | 0.00 | 0.00 | 0.00 | 37 | 984.0 |
| 20260506212542 | 43 | 355 | 6.0 | 16.0 | 0.00 | 0.00 | 0.00 | 37 | 984.2 |
| 20260506212041 | 43 | 311 | 9.0 | 14.0 | 0.00 | 0.00 | 0.00 | 38 | 984.2 |
| 20260506211538 | 43 | 360 | 5.0 | 12.0 | 0.00 | 0.00 | 0.00 | 37 | 984.3 |
| 20260506211038 | 43 | 15 | 5.0 | 12.0 | 0.00 | 0.00 | 0.00 | 37 | 984.2 |
| 20260506210542 | 43 | 334 | 7.0 | 14.0 | 0.00 | 0.00 | 0.00 | 38 | 984.2 |
| 20260506210038 | 43 | 26 | 6.0 | 14.0 | 0.00 | 0.00 | 0.00 | 38 | 984.3 |
| 20260506205537 | 43 | 337 | 7.0 | 15.0 | 0.00 | 0.00 | 0.00 | 38 | 984.2 |
| 20260506205038 | 43 | 319 | 5.0 | 14.0 | 0.00 | 0.00 | 0.00 | 40 | 984.4 |
| 20260506204535 | 43 | 338 | 6.0 | 15.0 | 0.00 | 0.00 | 0.00 | 39 | 984.6 |
| 20260506204034 | 43 | 288 | 7.0 | 18.0 | 0.00 | 0.00 | 0.00 | 38 | 984.5 |
| 20260506203534 | 43 | 332 | 7.0 | 18.0 | 0.00 | 0.00 | 0.00 | 39 | 984.6 |
| 20260506203034 | 42 | 355 | 6.0 | 15.0 | 0.00 | 0.00 | 0.00 | 39 | 984.6 |
| 20260506202533 | 42 | 341 | 4.0 | 15.0 | 0.00 | 0.00 | 0.00 | 39 | 984.7 |
| 20260506202033 | 42 | 333 | 4.0 | 14.0 | 0.00 | 0.00 | 0.00 | 39 | 984.6 |
| 20260506201542 | 42 | 304 | 7.0 | 14.0 | 0.00 | 0.00 | 0.00 | 40 | 984.9 |
| 20260506201034 | 42 | 340 | 5.0 | 12.0 | 0.00 | 0.00 | 0.00 | 39 | 984.8 |
| 20260506200530 | 43 | 340 | 6.0 | 15.0 | 0.00 | 0.00 | 0.00 | 40 | 984.8 |
| 20260506200031 | 42 | 67 | 8.0 | 16.0 | 0.00 | 0.00 | 0.00 | 41 | 984.8 |
| 20260506195529 | 42 | 33 | 8.0 | 16.0 | 0.00 | 0.00 | 0.00 | 41 | 984.8 |
| 20260506195031 | 41 | 342 | 6.0 | 17.0 | 0.00 | 0.00 | 0.00 | 40 | 985.0 |
| 20260506194534 | 42 | 304 | 7.0 | 17.0 | 0.00 | 0.00 | 0.00 | 43 | 985.1 |
| 20260506194027 | 41 | 325 | 4.0 | 14.0 | 0.00 | 0.00 | 0.00 | 42 | 985.0 |
| 20260506193526 | 41 | 360 | 8.0 | 14.0 | 0.00 | 0.00 | 0.00 | 42 | 985.0 |
| 20260506193026 | 41 | 278 | 8.0 | 17.0 | 0.00 | 0.00 | 0.00 | 42 | 985.2 |
| 20260506192527 | 41 | 339 | 7.0 | 17.0 | 0.00 | 0.00 | 0.00 | 41 | 985.2 |
| 20260506192026 | 41 | 304 | 8.0 | 17.0 | 0.00 | 0.00 | 0.00 | 41 | 985.2 |
| 20260506191525 | 41 | 312 | 8.0 | 17.0 | 0.00 | 0.00 | 0.00 | 42 | 985.3 |
| 20260506191025 | 41 | 284 | 9.0 | 14.0 | 0.00 | 0.00 | 0.00 | 42 | 985.3 |
| 20260506190523 | 41 | 348 | 6.0 | 13.0 | 0.00 | 0.00 | 0.00 | 43 | 985.2 |
| 20260506190023 | 41 | 347 | 4.0 | 14.0 | 0.00 | 0.00 | 0.00 | 42 | 985.4 |
| 20260506185522 | 41 | 312 | 7.0 | 16.0 | 0.00 | 0.00 | 0.00 | 44 | 985.4 |
| 20260506185021 | 40 | 303 | 7.0 | 16.0 | 0.00 | 0.00 | 0.00 | 42 | 985.3 |
| 20260506184520 | 40 | 28 | 6.0 | 16.0 | 0.00 | 0.00 | 0.00 | 42 | 985.5 |